Location: Angwan Shehu
(11.2514°N, 7.4613°E)
Time: 00:42:03
(UTC+00:00)

Tiros 1 - Pass Details

Date: 23 April 2021
Orbit: 630 x 664 km, 48.4° (Epoch: 06 May)

Event Time Altitude Azimuth Distance (km) Brightness Sun altitude
Rises 16:16:35 0° 304° (NW) 2,907 11.7 19.8°
Reaches altitude 10° 16:19:06 10° 294° (WNW) 2,003 11.6 19.2°
Maximum altitude 16:23:08 31° 232° (SW) 1,121 9.2 18.2°
Drops below altitude 10° 16:27:14 10° 170° (S) 2,018 9.6 17.2°
Sets 16:29:47 0° 160° (SSE) 2,932 10.2 16.6°
